This demonstration page uses our WeatherBlox Daily Observations layout. Learn more.

Left ArrowRight Arrow

Hourly Observations for April 5, 2018

Temp ( °F °C ) Dew Point ( °F °C ) Humidity (%) Winds ( mph kmh ) Pressure ( in mb ) Visibility ( mi km ) Precip ( " mm )
12:53 am 00:53 Mostly Cloudy 33 0.6 20 -6.7 58 58 WNW 6 9 30.29 1026 10 16 0.00 0.00
1:53 am 01:53 Mostly Cloudy 31 -0.6 21 -6.1 67 67 W 3 6 30.29 1026 10 16 0.00 0.00
2:53 am 02:53 Mostly Cloudy 30 -1.1 22 -5.6 72 72 W 3 6 30.29 1026 10 16 0.00 0.00
3:53 am 03:53 Clear 27 -2.8 21 -6.1 78 78 Calm 30.30 1026 10 16 0.00 0.00
4:53 am 04:53 Clear 28 -2.2 24 -4.4 85 85 WSW 3 6 30.29 1026 10 16 0.00 0.00
5:53 am 05:53 Clear 26 -3.3 23 -5 88 88 Calm 30.29 1026 10 16 0.00 0.00
6:53 am 06:53 Clear 25 -3.9 22 -5.6 88 88 Calm 30.29 1026 10 16 0.00 0.00
7:53 am 07:53 Sunny 26 -3.3 23 -5 88 88 Calm 30.31 1026 10 16 0.00 0.00
8:53 am 08:53 Sunny 33 0.6 26 -3.3 75 75 WSW 6 9 30.32 1027 10 16 0.00 0.00
9:53 am 09:53 Mostly Sunny 36 2.2 25 -3.9 64 64 WSW 7 11 30.33 1027 10 16 0.00 0.00
10:53 am 10:53 Sunny 38 3.3 22 -5.6 52 52 NW 9 15 30.32 1027 10 16 0.00 0.00
11:53 am 11:53 Mostly Sunny 41 5 20 -6.7 43 43 WNW 8 13 30.32 1027 10 16 0.00 0.00
12:53 pm 12:53 Mostly Cloudy 43 6.1 22 -5.6 43 43 W 7 11 30.29 1026 10 16 0.00 0.00
1:53 pm 13:53 Mostly Cloudy 46 7.8 20 -6.7 35 35 Calm 30.26 1025 10 16 0.00 0.00
2:53 pm 14:53 Mostly Cloudy 47 8.3 18 -7.8 31 31 VRB 6 9 30.23 1024 10 16 0.00 0.00
3:53 pm 15:53 Cloudy 48 8.9 20 -6.7 33 33 SSW 6 9 30.19 1022 10 16 0.00 0.00
4:53 pm 16:53 Mostly Cloudy 50 10 21 -6.1 32 32 Calm 30.16 1021 10 16 0.00 0.00
5:53 pm 17:53 Mostly Sunny 51 10.6 22 -5.6 32 32 WSW 6 9 30.13 1020 10 16 0.00 0.00
6:53 pm 18:53 Sunny 51 10.6 23 -5 33 33 SSW 7 11 30.11 1020 10 16 0.00 0.00
7:53 pm 19:53 Mostly Cloudy 49 9.4 25 -3.9 39 39 SSW 3 6 30.09 1019 10 16 0.00 0.00
8:53 pm 20:53 Clear 48 8.9 27 -2.8 44 44 Calm 30.08 1019 10 16 0.00 0.00
9:53 pm 21:53 Clear 48 8.9 24 -4.4 39 39 Calm 30.06 1018 10 16 0.00 0.00
10:53 pm 22:53 Partly Cloudy 47 8.3 27 -2.8 46 46 Calm 30.05 1018 10 16 0.00 0.00
11:53 pm 23:53 Mostly Cloudy 45 7.2 30 -1.1 56 56 Calm 30.04 1017 10 16 0.00 0.00

Powered by AerisWeather